Regional Weather Roundup
Issued by NWS Jackson, KY

Home | Current Version | Previous Version | Graphics & Text | Print | Product List | Glossary On
Versions: 1 2 3 4 5 6 7 8 9 10 11 12 13 14 15 16 17 18 19 20 21 22 23 24 25 26 27 28 29 30 31 32 33 34 35 36 37 38 39 40 41 42 43 44 45 46 47 48 49 50
000
ASUS43 KJKL 222310
RWRJKL

EAST KENTUCKY HOURLY WEATHER ROUNDUP
NATIONAL WEATHER SERVICE JACKSON KY
700 PM EDT FRI JUL 22 2016

NOTE: "FAIR" INDICATES FEW OR NO CLOUDS BELOW 12,000 FEET WITH
NO SIGNIFICANT WEATHER AND/OR OBSTRUCTIONS TO VISIBILITY.

* THESE REPORTS ARE NOT UNDER NWS QUALITY CONTROL AND MAY NOT
  REPORT WEATHER SUCH AS PRECIPITATION AND FOG.

KYZ079-080-083-085-087-088-110-112-115-119-120-230000
...EASTERN KENTUCKY...

CITY           SKY/WX    TMP DP  RH WIND       PRES   REMARKS
JACKSON        CLOUDY    75  67  76 CALM      30.07R
LONDON         CLOUDY    88  70  55 NE6       30.03F HX  93
SOMERSET*      TSTM      75  68  78 S10       30.05R
MONTICELLO*    CLOUDY   N/A N/A N/A CALM      30.04S
WILLIAMSBURG*  CLOUDY    88  73  62 NE5       30.03S HX  96
MIDDLESBORO*   CLOUDY    86  73  64 CALM      30.03S HX  93
HARLAN APT*      N/A     88  68  51 NW3       30.06R HX  91
PIKE CO APT*   PTSUNNY   75  72  89 NW8       30.07S
MOREHEAD APT*  CLOUDY    72  70  94 S6        30.06F FOG
ASHLAND*       CLOUDY    75  72  88 SW3       29.98F
$$

KYZ035-036-041-042-044-050-067-078-099-230000
...CENTRAL KENTUCKY...

CITY           SKY/WX    TMP DP  RH WIND       PRES   REMARKS
MT STERLING*   CLOUDY    73  72  94 SE8       30.06F
FLEMING/MASON* MOSUNNY   73  70  92 S8        30.04F
DANVILLE*      CLOUDY    73  68  83 S9        30.06R
RICHMOND*      CLOUDY    84  72  65 N14       30.04R
LEXINGTON      SUNNY     82  70  66 E12       30.04S
FRANKFORT      PTSUNNY   86  71  60 NW3       30.02S HX  91
LOUISVILLE     PTSUNNY   91  72  53 N8        29.98F HX  98
LEBANON*         N/A     88  75  66 CALM      30.01F HX  97
GLASGOW*       CLOUDY    75  72  91 S3        30.02F
BOWLING GREEN  CLOUDY    81  73  76 E6        30.01F
$$

KYZ091>093-OHZ055-061-077-WVZ005-015-034-035-042-230000
...SOUTHERN OHIO/WEST VIRGINIA...

CITY           SKY/WX    TMP DP  RH WIND       PRES   REMARKS
COVINGTON      CLOUDY    83  73  72 S14       30.01S
COLUMBUS       PTSUNNY   84  70  62 S10       29.98F
DAYTON         MOSUNNY   84  75  74 S6        30.01F HX  92
WILMINGTON     SUNNY     82  71  69 SW8       30.01F
HUNTINGTON     LGT RAIN  75  72  90 SW6       30.01F
CHARLESTON     PTSUNNY   81  69  67 SW6       30.02F
PINEVILLE*       N/A     80  71  72 MISG      30.11F
BECKLEY          N/A     81  66  60 W3        30.11F
BLUEFIELD        N/A     77  64  64 N3        30.14F
LOGAN CO APT*    N/A     79  72  78 CALM      30.05F
$$

VAZ002-007-008-TNZ017-027-036-066-071-230000
...SOUTHWEST VIRGINIA/EAST TENNESSEE...

CITY           SKY/WX    TMP DP  RH WIND       PRES   REMARKS
WISE*            N/A     82  57  42 N7        30.14S
JONESVILLE*      N/A     88  72  58 NW3       30.06R HX  94
ABINGDON*        N/A     88  65  47 CALM      30.08S
BRISTOL        PTSUNNY   92  64  39 VRB6      30.04S HX  93
MORRISTOWN*    MOCLDY    90  70  51 SE6       30.02S HX  95
SEVIERVILLE*   CLEAR     90  66  45 N7        30.00S HX  92
KNOXVILLE      PTSUNNY   92  68  45 NW3       30.00R HX  96
OAK RIDGE      MOSUNNY   95  69  42 CALM      30.02R HX 100
CROSSVILLE     SUNNY     87  66  49 NW6       30.09R
NASHVILLE      CLOUDY    87  75  67 W7        30.01R THUNDER HX  96
$$

...KEY TO REMARKS...
VSB - VISIBILITY IN MILES
WCI - WIND CHILL INDEX
HX  - HEAT INDEX

$$



USA.gov is the U.S. government's official web portal to all federal, state and local government web resources and services.